Etusivu
METAR-TAF:

METAR-TAF

Lentoasemat :

Carrollton, Georgia, Yhdysvallat

Leveyspiiri: 33-37-54N, Pituuspiiri: 085-09-08W, korkeus merenpinnasta: 354 m

Tämänhetkinen sää

Tämä raportti tehtiin 31 minuuttia sitten, kello 03.55 UTC
Tuuli 5 kn luoteesta
Lämpötila 13°C
Kosteus 88%
Ilmanpaine 1018 hPa
Näkyvyys: 16.1 km
selkeää

METAR: KCTJ 260355Z AUTO 32005KT 10SM CLR 13/11 A3005 RMK AO2 T01330107

Aika: 00:26 (04:26 UTC)


TAF: puuttuu

Säähavainnot ja -ennusteet yli 4000 lentoasemalta (METAR- ja TAF-raportit).

Käytössä olevat sääasemat on merkitty karttaan keltaisilla ja punaisilla pisteillä.

Aseta hiiri pisteen päälle nähdäksesi sääaseman nimen.

Klikkaa sitten nähdäksesi säähavainnot ja -ennusteet.

Kartan vaihtaminen: klikkaa mustalla rastilla varustettuja vihreitä pisteitä, niin voit zoomata sisään; viivalla varustettua vihreää pistettä, niin voit zoomata ulos tai vihreitä nuolia, niin pääset viereisille kartoille.


METAR-TAF: